Home   Weather   Wilkes-Barre   Past weeks
Flag for USA

Past Weather in Wilkes-Barre, Pennsylvania, USA — Yesterday and Last 2 Weeks

Now
71 °F

Passing clouds.


Feels Like: 69 °F
Forecast: 79 / 68 °F
Wind: No wind

Location: Barre - Scranton - Wilkes-Barre / Scranton International Airport

Current Time: Jun 19, 2019 at 11:42:53 pm

Latest Report: Jun 19, 2019 at 11:01 pm


Visibility: 10 mi

Pressure: 29.74 "Hg

Humidity: 87%

Dew Point: 67 °F

Location of Wilkes-BarreLocation

Past Weather in Wilkes-Barre — Graph

°F

Wilkes-Barre Temperature Yesterday

Maximum temperature yesterday: 72 °F (at 5:54 pm)
Minimum temperature yesterday: 63 °F (at 10:31 am)
Average temperature yesterday: 66 °F

High & Low Weather Summary for the Past Weeks

 TemperatureHumidityPressure
High82 °F (Jun 5, 2:54 pm)100% (Jun 18, 2:34 am)30.28 "Hg (Jun 18, 2:34 am)
Low46 °F (Jun 12, 5:54 am)24% (Jun 9, 11:54 am)29.67 "Hg (Jun 6, 3:54 am)
Average67 °F74%29.95 "Hg
* Reported Jun 4 9:54 pm — Jun 19 9:54 pm, Wilkes-Barre. Weather by CustomWeather, © 2019

Note: Actual official high and low records may vary slightly from our data, if they occured in-between our weather recording intervals... More about our weather records

Advertising

Wilkes-Barre Weather History for the Previous 24 Hours

Scroll right to see more
 ConditionsComfort  
Time TempWeatherWind HumidityBarometerVisibility
9:54 pm
Wed, Jun 19
71 °FClear.5 mph87%29.72 "Hg10 mi
8:54 pm71 °FPassing clouds.No wind87%29.72 "Hg10 mi
7:54 pm73 °FLight rain. Mostly cloudy.3 mph81%29.73 "Hg7 mi
6:54 pm76 °FOvercast.3 mph74%29.72 "Hg10 mi
5:54 pm76 °FMostly cloudy.3 mph74%29.73 "Hg10 mi
4:54 pm78 °FMore clouds than sun.5 mph69%29.73 "Hg10 mi
3:54 pm76 °FMore clouds than sun.7 mph74%29.76 "Hg10 mi
2:54 pm76 °FPartly sunny.9 mph74%29.77 "Hg10 mi
1:54 pm76 °FOvercast.7 mph72%29.78 "Hg10 mi
12:54 pm77 °FMostly cloudy.6 mph71%29.79 "Hg10 mi
12:30 pm76 °FCloudy.8 mph72%29.83 "Hg10 mi
12:23 pm76 °FBroken clouds.6 mph72%29.83 "Hg10 mi
11:54 am76 °FBroken clouds.7 mph74%29.81 "Hg10 mi
11:22 am75 °FBroken clouds.7 mph74%29.84 "Hg10 mi
10:54 am76 °FCloudy.6 mph74%29.82 "Hg10 mi
9:54 am73 °FScattered clouds.3 mph79%29.83 "Hg10 mi
9:41 am71 °FPartly sunny.3 mph81%29.86 "Hg10 mi
9:31 am70 °FMostly cloudy.3 mph84%29.86 "Hg10 mi
8:54 am69 °FOvercast.No wind84%29.84 "Hg10 mi
7:54 am67 °FPartly sunny.3 mph90%29.83 "Hg10 mi
6:54 am65 °FOvercast.3 mph91%29.84 "Hg10 mi
5:54 am63 °FMore clouds than sun.No wind97%29.85 "Hg10 mi
4:54 am64 °FOvercast.3 mph90%29.84 "Hg10 mi
3:54 am64 °FOvercast.3 mph90%29.85 "Hg10 mi
2:54 am63 °FOvercast.5 mph93%29.86 "Hg10 mi
1:54 am63 °FPassing clouds.5 mph93%29.87 "Hg10 mi
12:54 am63 °FClear.3 mph93%29.88 "Hg10 mi
11:54 pm
Tue, Jun 18
64 °FClear.5 mph94%29.89 "Hg10 mi
Weather by CustomWeather, © 2019

See weather overview